| time (UTC) | temp F | wind direction | speed MPH | gust MPH | rain 1hr in | rain 24hr in | rain mn in | humidity % | barometer mb |
| 20260904220516 | 97 | 0 | 3.0 | 10.0 | 0.00 | 0.00 | 0.00 | 26 | 1014.2 |
| 20260904215636 | 96 | 0 | 3.0 | 10.0 | 0.00 | 0.00 | 0.00 | 27 | 1014.2 |
| 20260904214516 | 96 | 0 | 4.0 | 13.0 | 0.00 | 0.00 | 0.00 | 26 | 1014.3 |
| 20260904213556 | 96 | 0 | 7.0 | 14.0 | 0.00 | 0.00 | 0.00 | 26 | 1014.5 |
| 20260904212516 | 98 | 0 | 5.0 | 11.0 | 0.00 | 0.00 | 0.00 | 25 | 1014.9 |
| 20260904211556 | 97 | 0 | 3.0 | 11.0 | 0.00 | 0.00 | 0.00 | 26 | 1015.2 |
| 20260904210516 | 99 | 0 | 3.0 | 8.0 | 0.00 | 0.00 | 0.00 | 24 | 1015.7 |
| 20260904205516 | 99 | 0 | 4.0 | 14.0 | 0.00 | 0.00 | 0.00 | 25 | 1015.8 |
| 20260904203516 | 98 | 0 | 8.0 | 16.0 | 0.00 | 0.00 | 0.00 | 25 | 1016.3 |
| 20260904202516 | 98 | 0 | 6.0 | 13.0 | 0.00 | 0.00 | 0.00 | 25 | 1016.5 |
| 20260904200516 | 97 | 0 | 4.0 | 9.0 | 0.00 | 0.00 | 0.00 | 27 | 1016.4 |
| 20260904195636 | 97 | 0 | 5.0 | 11.0 | 0.00 | 0.00 | 0.00 | 27 | 1016.6 |
| 20260904194556 | 95 | 0 | 6.0 | 11.0 | 0.00 | 0.00 | 0.00 | 27 | 1016.5 |
| 20260904193516 | 96 | 0 | 4.0 | 10.0 | 0.00 | 0.00 | 0.00 | 27 | 1016.8 |
| 20260904192515 | 95 | 0 | 4.0 | 9.0 | 0.00 | 0.00 | 0.00 | 28 | 1016.9 |
| 20260904191556 | 96 | 0 | 7.0 | 15.0 | 0.00 | 0.00 | 0.00 | 27 | 1017.1 |
| 20260904190636 | 96 | 0 | 6.0 | 16.0 | 0.00 | 0.00 | 0.00 | 27 | 1017.1 |
| 20260904185515 | 96 | 0 | 6.0 | 14.0 | 0.00 | 0.00 | 0.00 | 27 | 1017.3 |
| 20260904184516 | 96 | 0 | 4.0 | 13.0 | 0.00 | 0.00 | 0.00 | 27 | 1017.5 |
| 20260904183636 | 95 | 0 | 6.0 | 16.0 | 0.00 | 0.00 | 0.00 | 28 | 1017.2 |
| 20260904182515 | 93 | 0 | 5.0 | 11.0 | 0.00 | 0.00 | 0.00 | 29 | 1017.0 |
| 20260904181515 | 93 | 0 | 5.0 | 11.0 | 0.00 | 0.00 | 0.00 | 29 | 1016.9 |
| 20260904180515 | 94 | 0 | 5.0 | 13.0 | 0.00 | 0.00 | 0.00 | 29 | 1017.2 |
| 20260904174515 | 93 | 0 | 5.0 | 11.0 | 0.00 | 0.00 | 0.00 | 30 | 1017.4 |
| 20260904173635 | 92 | 0 | 4.0 | 12.0 | 0.00 | 0.00 | 0.00 | 31 | 1017.2 |
| 20260904172555 | 92 | 0 | 4.0 | 12.0 | 0.00 | 0.00 | 0.00 | 31 | 1017.5 |
| 20260904171515 | 92 | 0 | 7.0 | 14.0 | 0.00 | 0.00 | 0.00 | 31 | 1017.7 |
| 20260904170515 | 92 | 0 | 4.0 | 9.0 | 0.00 | 0.00 | 0.00 | 32 | 1017.8 |
| 20260904165515 | 92 | 0 | 6.0 | 12.0 | 0.00 | 0.00 | 0.00 | 32 | 1017.8 |
| 20260904164555 | 91 | 0 | 3.0 | 11.0 | 0.00 | 0.00 | 0.00 | 32 | 1017.8 |
| 20260904163515 | 90 | 0 | 2.0 | 8.0 | 0.00 | 0.00 | 0.00 | 32 | 1017.9 |
| 20260904162515 | 90 | 0 | 4.0 | 9.0 | 0.00 | 0.00 | 0.00 | 33 | 1018.0 |
| 20260904161515 | 89 | 0 | 3.0 | 6.0 | 0.00 | 0.00 | 0.00 | 34 | 1018.0 |
| 20260904160515 | 88 | 0 | 3.0 | 9.0 | 0.00 | 0.00 | 0.00 | 35 | 1018.0 |
| 20260904155635 | 87 | 0 | 3.0 | 8.0 | 0.00 | 0.00 | 0.00 | 37 | 1018.0 |
| 20260904154515 | 86 | 0 | 4.0 | 8.0 | 0.00 | 0.00 | 0.00 | 38 | 1018.1 |
| 20260904153515 | 85 | 0 | 4.0 | 10.0 | 0.00 | 0.00 | 0.00 | 39 | 1017.7 |
| 20260904152635 | 85 | 0 | 5.0 | 9.0 | 0.00 | 0.00 | 0.00 | 39 | 1018.0 |
| 20260904151515 | 85 | 0 | 4.0 | 8.0 | 0.00 | 0.00 | 0.00 | 39 | 1018.0 |
| 20260904145555 | 83 | 0 | 4.0 | 9.0 | 0.00 | 0.00 | 0.00 | 40 | 1017.8 |
| 20260904144515 | 84 | 0 | 5.0 | 10.0 | 0.00 | 0.00 | 0.00 | 40 | 1017.9 |
| 20260904143515 | 83 | 0 | 2.0 | 10.0 | 0.00 | 0.00 | 0.00 | 41 | 1017.8 |
| 20260904142515 | 82 | 0 | 4.0 | 9.0 | 0.00 | 0.00 | 0.00 | 42 | 1017.7 |
| 20260904141515 | 81 | 0 | 2.0 | 6.0 | 0.00 | 0.00 | 0.00 | 43 | 1017.6 |
| 20260904135555 | 78 | 0 | 1.0 | 4.0 | 0.00 | 0.00 | 0.00 | 47 | 1017.1 |
| 20260904134555 | 78 | 0 | 2.0 | 4.0 | 0.00 | 0.00 | 0.00 | 48 | 1017.3 |
| 20260904133515 | 77 | 0 | 1.0 | 4.0 | 0.00 | 0.00 | 0.00 | 49 | 1017.3 |
| 20260904132635 | 76 | 0 | 2.0 | 5.0 | 0.00 | 0.00 | 0.00 | 51 | 1017.2 |
| 20260904130515 | 69 | 0.0 | 0.0 | 0.00 | 0.00 | 0.00 | 61 | 1016.6 | |
| 20260904125515 | 68 | 0.0 | 0.0 | 0.00 | 0.00 | 0.00 | 61 | 1016.5 | |
| 20260904124515 | 68 | 0.0 | 2.0 | 0.00 | 0.00 | 0.00 | 60 | 1016.2 | |
| 20260904123515 | 68 | 0 | 0.0 | 2.0 | 0.00 | 0.00 | 0.00 | 59 | 1016.3 |
| 20260904122555 | 68 | 0 | 0.0 | 2.0 | 0.00 | 0.00 | 0.00 | 60 | 1016.3 |
| 20260904120635 | 67 | 0 | 1.0 | 3.0 | 0.00 | 0.00 | 0.00 | 61 | 1016.1 |
| 20260904115516 | 68 | 0 | 0.0 | 2.0 | 0.00 | 0.00 | 0.00 | 58 | 1016.1 |
| 20260904114557 | 68 | 0 | 2.0 | 4.0 | 0.00 | 0.00 | 0.00 | 60 | 1016.1 |
| 20260904113556 | 67 | 0.0 | 0.0 | 0.00 | 0.00 | 0.00 | 59 | 1016.2 | |
| 20260904112557 | 67 | 0.0 | 0.0 | 0.00 | 0.00 | 0.00 | 60 | 1016.2 | |
| 20260904110517 | 68 | 0.0 | 0.0 | 0.00 | 0.00 | 0.00 | 56 | 1016.3 | |
| 20260904105517 | 69 | 0.0 | 0.0 | 0.00 | 0.00 | 0.00 | 54 | 1016.5 | |
| 20260904104516 | 69 | 0.0 | 0.0 | 0.00 | 0.00 | 0.00 | 54 | 1016.5 | |
| 20260904103516 | 70 | 0.0 | 0.0 | 0.00 | 0.00 | 0.00 | 54 | 1016.6 | |
| 20260904102557 | 72 | 0 | 0.0 | 2.0 | 0.00 | 0.00 | 0.00 | 51 | 1016.7 |
| 20260904100636 | 73 | 0 | 0.0 | 1.0 | 0.00 | 0.00 | 0.00 | 49 | 1017.0 |
| 20260904095556 | 74 | 0 | 0.0 | 1.0 | 0.00 | 0.00 | 0.00 | 49 | 1017.0 |
| 20260904094636 | 74 | 0 | 1.0 | 2.0 | 0.00 | 0.00 | 0.00 | 49 | 1017.0 |
| 20260904093556 | 75 | 0.0 | 1.0 | 0.00 | 0.00 | 0.00 | 48 | 1017.2 | |
| 20260904092516 | 76 | 0 | 0.0 | 2.0 | 0.00 | 0.00 | 0.00 | 46 | 1017.2 |
| 20260904091516 | 78 | 0.0 | 0.0 | 0.00 | 0.00 | 0.00 | 45 | 1017.5 | |
| 20260904090556 | 79 | 0.0 | 2.0 | 0.00 | 0.00 | 0.00 | 43 | 1017.5 | |
| 20260904085516 | 80 | 0 | 1.0 | 3.0 | 0.00 | 0.00 | 0.00 | 43 | 1017.6 |
| 20260904084516 | 81 | 0 | 0.0 | 3.0 | 0.00 | 0.00 | 0.00 | 42 | 1017.5 |
| 20260904083516 | 81 | 0 | 0.0 | 4.0 | 0.00 | 0.00 | 0.00 | 42 | 1017.6 |
| 20260904082556 | 81 | 0 | 2.0 | 5.0 | 0.00 | 0.00 | 0.00 | 42 | 1017.8 |
| 20260904081556 | 81 | 0 | 0.0 | 5.0 | 0.00 | 0.00 | 0.00 | 41 | 1017.6 |
| 20260904080556 | 81 | 0 | 3.0 | 5.0 | 0.00 | 0.00 | 0.00 | 42 | 1017.6 |
| 20260904075556 | 80 | 0 | 1.0 | 4.0 | 0.00 | 0.00 | 0.00 | 42 | 1017.6 |
| 20260904074636 | 81 | 0 | 1.0 | 2.0 | 0.00 | 0.00 | 0.00 | 41 | 1017.5 |
| 20260904073516 | 81 | 0 | 1.0 | 5.0 | 0.00 | 0.00 | 0.00 | 41 | 1017.6 |
| 20260904072516 | 81 | 0 | 0.0 | 3.0 | 0.00 | 0.00 | 0.00 | 40 | 1017.5 |
| 20260904071516 | 81 | 0 | 0.0 | 2.0 | 0.00 | 0.00 | 0.00 | 40 | 1017.5 |
| 20260904070517 | 81 | 0 | 0.0 | 2.0 | 0.00 | 0.00 | 0.00 | 40 | 1017.7 |
| 20260904065556 | 81 | 0 | 1.0 | 3.0 | 0.00 | 0.00 | 0.00 | 40 | 1017.6 |
| 20260904064516 | 80 | 0 | 1.0 | 5.0 | 0.00 | 0.00 | 0.00 | 40 | 1017.5 |
| 20260904063516 | 80 | 0 | 1.0 | 4.0 | 0.00 | 0.00 | 0.00 | 40 | 1017.3 |
| 20260904061516 | 78 | 0 | 0.0 | 2.0 | 0.00 | 0.00 | 0.00 | 42 | 1017.1 |
| 20260904060556 | 78 | 0 | 1.0 | 4.0 | 0.00 | 0.00 | 0.00 | 43 | 1016.7 |
| 20260904055515 | 77 | 0 | 1.0 | 2.0 | 0.00 | 0.00 | 0.00 | 44 | 1016.3 |
| 20260904054515 | 77 | 0 | 0.0 | 2.0 | 0.00 | 0.00 | 0.00 | 44 | 1016.3 |
| 20260904053515 | 77 | 0 | 1.0 | 2.0 | 0.00 | 0.00 | 0.00 | 44 | 1016.2 |
| 20260904052515 | 77 | 0 | 1.0 | 2.0 | 0.00 | 0.00 | 0.00 | 43 | 1016.0 |
| 20260904051555 | 78 | 0 | 0.0 | 2.0 | 0.00 | 0.00 | 0.00 | 42 | 1016.0 |
| 20260904050515 | 79 | 0 | 0.0 | 1.0 | 0.00 | 0.00 | 0.00 | 41 | 1015.9 |
| 20260904045555 | 79 | 0 | 0.0 | 2.0 | 0.00 | 0.00 | 0.00 | 42 | 1016.0 |
| 20260904043515 | 81 | 0.0 | 1.0 | 0.00 | 0.00 | 0.00 | 41 | 1015.9 | |
| 20260904042515 | 82 | 0 | 0.0 | 2.0 | 0.00 | 0.00 | 0.00 | 39 | 1015.8 |
| 20260904035635 | 85 | 0.0 | 1.0 | 0.00 | 0.00 | 0.00 | 36 | 1016.1 | |
| 20260904034555 | 86 | 0 | 1.0 | 5.0 | 0.00 | 0.00 | 0.00 | 36 | 1016.0 |
| 20260904032515 | 87 | 0 | 1.0 | 6.0 | 0.00 | 0.00 | 0.00 | 34 | 1015.9 |
| 20260904031515 | 87 | 0 | 1.0 | 4.0 | 0.00 | 0.00 | 0.00 | 34 | 1016.0 |
| 20260904030515 | 87 | 0 | 2.0 | 5.0 | 0.00 | 0.00 | 0.00 | 34 | 1015.6 |
| 20260904025517 | 87 | 0 | 2.0 | 6.0 | 0.00 | 0.00 | 0.00 | 33 | 1015.2 |
| 20260904024637 | 88 | 0 | 2.0 | 10.0 | 0.00 | 0.00 | 0.00 | 33 | 1015.1 |
| 20260904023557 | 88 | 0 | 2.0 | 5.0 | 0.00 | 0.00 | 0.00 | 32 | 1014.6 |
| 20260904021517 | 87 | 0 | 2.0 | 6.0 | 0.00 | 0.00 | 0.00 | 30 | 1013.6 |
| 20260904020637 | 87 | 0 | 0.0 | 2.0 | 0.00 | 0.00 | 0.00 | 29 | 1013.3 |
| 20260904015637 | 88 | 0.0 | 0.0 | 0.00 | 0.00 | 0.00 | 27 | 1012.9 | |
| 20260904014517 | 89 | 0.0 | 0.0 | 0.00 | 0.00 | 0.00 | 27 | 1012.8 | |
| 20260904013516 | 90 | 0.0 | 0.0 | 0.00 | 0.00 | 0.00 | 27 | 1012.6 | |
| 20260904012516 | 91 | 0.0 | 2.0 | 0.00 | 0.00 | 0.00 | 26 | 1012.4 | |
| 20260904011516 | 93 | 0 | 1.0 | 3.0 | 0.00 | 0.00 | 0.00 | 25 | 1012.5 |
| 20260904010516 | 94 | 0 | 1.0 | 6.0 | 0.00 | 0.00 | 0.00 | 24 | 1012.5 |
| 20260904005516 | 94 | 0 | 5.0 | 11.0 | 0.00 | 0.00 | 0.00 | 23 | 1012.4 |
| 20260904004516 | 95 | 0 | 4.0 | 9.0 | 0.00 | 0.00 | 0.00 | 23 | 1012.5 |
| 20260904003636 | 95 | 0 | 5.0 | 12.0 | 0.00 | 0.00 | 0.00 | 22 | 1012.6 |
| 20260904002556 | 96 | 0 | 4.0 | 10.0 | 0.00 | 0.00 | 0.00 | 22 | 1012.7 |
| 20260904001516 | 96 | 0 | 2.0 | 6.0 | 0.00 | 0.00 | 0.00 | 21 | 1012.7 |
| 20260904000516 | 97 | 0 | 4.0 | 9.0 | 0.00 | 0.00 | 0.00 | 20 | 1012.8 |
| 20260903235636 | 98 | 0 | 3.0 | 11.0 | 0.00 | 0.00 | 0.00 | 20 | 1012.8 |
| 20260903233516 | 99 | 0 | 5.0 | 12.0 | 0.00 | 0.00 | 0.00 | 20 | 1012.8 |
| 20260903232516 | 99 | 0 | 5.0 | 11.0 | 0.00 | 0.00 | 0.00 | 19 | 1012.8 |
| 20260903231636 | 99 | 0 | 3.0 | 9.0 | 0.00 | 0.00 | 0.00 | 19 | 1012.9 |
| 20260903230636 | 99 | 0 | 4.0 | 9.0 | 0.00 | 0.00 | 0.00 | 19 | 1013.0 |
| 20260903225636 | 99 | 0 | 4.0 | 11.0 | 0.00 | 0.00 | 0.00 | 20 | 1013.2 |
| 20260903224516 | 99 | 0 | 6.0 | 13.0 | 0.00 | 0.00 | 0.00 | 19 | 1013.4 |
| 20260903223636 | 98 | 0 | 5.0 | 12.0 | 0.00 | 0.00 | 0.00 | 19 | 1013.3 |
| 20260903222516 | 99 | 0 | 7.0 | 12.0 | 0.00 | 0.00 | 0.00 | 19 | 1013.5 |